Regional Weather Roundup
Issued by NWS Albany, NY

Current Version | Previous Version | Graphics & Text | Print | Product List | Glossary Off
Versions: 1 2 3 4 5 6 7 8 9 10 11 12 13 14 15 16 17 18 19 20 21 22 23 24 25 26 27 28 29 30 31 32 33 34 35 36 37 38 39 40 41 42 43 44 45 46 47 48 49 50

192
ASUS41 KALY 101310
RWRALY

NEW YORK STATE HOURLY WEATHER ROUNDUP
NATIONAL WEATHER SERVICE ALBANY NY
800 AM EST WED FEB 10 2016

NOTE: "FAIR" INDICATES FEW OR NO CLOUDS BELOW 12,000 FEET WITH NO
SIGNIFICANT WEATHER AND/OR NO OBSTRUCTIONS TO VISIBILITY.

NYZ032-033-038>043-046>054-057>066-NYZ062>081-101400-
EAST


CITY           SKY/WX    TMP DP  RH WIND       PRES   REMARKS
ALBANY         LGT SNOW  29  26  89 S5        29.57S FOG     WCI  24
GLENS FALLS    CLOUDY    26  23  88 S5        29.56R FOG     WCI  20
POUGHKEEPSIE   CLOUDY    32  29  88 CALM      29.59R VSB 3/4
NEWBURGH       LGT SNOW  30  30 100 W7        29.58R WCI  23
MONTGOMERY     CLOUDY    31  29  92 SW7       29.57R FOG     WCI  24
WHITE PLAINS   LGT SNOW  31  28  89 CALM      29.58R VSB 1
ISLIP          LGT SNOW  31  29  92 CALM      29.60R FOG
NEW YORK CITY  LGT SNOW  36  28  75 W7        29.61R WCI  30
CENTRAL PARK   CLOUDY    33  28  81 VRB3      29.63S HAZE
$$

NYZ005>009-017-018-044>046-055-056-101400-
CENTRAL


CITY           SKY/WX    TMP DP  RH WIND       PRES   REMARKS
FULTON         LGT SNOW  32  27  81 SW14      29.52R WCI  22
SYRACUSE       LGT SNOW  28  27  96 SW10      29.53R FOG     WCI  19
ROME           CLOUDY    26  24  92 SE5       29.55R FOG     WCI  20
ELMIRA         CLOUDY    27  22  81 W5        29.58R WCI  22
BINGHAMTON     CLOUDY    25  18  74 W10       29.52R WCI  15
MONTICELLO     CLOUDY    27  25  93 W6        29.55R WCI  20
$$

NYZ026>034-041>043-101400-
NORTH


CITY           SKY/WX    TMP DP  RH WIND       PRES   REMARKS
WATERTOWN      SNOW      29  27  92 S8        29.48S VSB 1/4 WCI  21
FORT DRUM      NOT AVBL
MASSENA        LGT SNOW  20  16  84 NE7       29.55R FOG     WCI  11
SARANAC LAKE   CLOUDY    25  23  92 CALM      29.42S
PLATTSBURGH    LGT SNOW  22  18  85 N5        29.54S FOG     WCI  16
$$

NYZ001>004-010>016-019>021-101400-
WEST


CITY           SKY/WX    TMP DP  RH WIND       PRES   REMARKS
NIAGARA FALLS  LGT SNOW  27  21  78 W17       29.60R WCI  14
BUFFALO        LGT SNOW  25  21  85 W17       29.60R FOG     WCI  12
DUNKIRK        LGT SNOW  26  22  84 W17G28    29.65R FOG     WCI  13
JAMESTOWN      CLOUDY    21  16  79 W15G21    29.59S WCI   8
WELLSVILLE     LGT SNOW  22  17  81 W16G24    29.55R WCI   8
ROCHESTER      LGT SNOW  29  24  82 W15G23    29.56R FOG     WCI  18
PENN YAN       CLOUDY    30  22  72 W15G22    29.54R WCI  19
$$

             KEY
       WCI = WIND CHILL INDEX
       VSB = VISIBILITY
       HX  = HEAT INDEX
$$




USA.gov is the U.S. government's official web portal to all federal, state and local government web resources and services.